Вернуться в каталог

SIGI

АктивенНаукаSSO
NORAD 62632·PAYLOAD·🇩🇪 Germany

Запущен Jan 14, 2025 с Vandenberg Space Force Base

Loading…

Ближайшие Пролёты (ближайшие 24 часа)

TLE

СвежийSource: Space-Track

Эпоха: Sep 14, 2026, 13:27 UTC

1 62632U 25009Z   26257.56069471  .00004617  00000-0  18535-3 0  9998
2 62632  97.3947 336.7072 0003373  25.4438 334.6965 15.25454788 92422

Отслеживайте SIGI в реальном времени с AllMySat

Download on the App Store